Regional Weather Roundup
Issued by NWS Newport/Morehead, NC

Current Version | Previous Version | Graphics & Text | Print | Product List | Glossary Off
Versions: 1 2 3 4 5 6 7 8 9 10 11 12 13 14 15 16 17 18 19 20 21 22 23 24 25 26 27 28 29 30 31 32 33 34 35 36 37 38 39 40 41 42 43 44 45 46 47 48 49 50

000
ASUS42 KMHX 281014
RWRMHX
WEATHER ROUNDUP FOR EASTERN NORTH CAROLINA
NATIONAL WEATHER SERVICE NEWPORT/MOREHEAD CITY NC
600 AM EDT SUN MAY 28 2017

NOTE: "FAIR" INDICATES FEW OR NO CLOUDS BELOW 12,000 FEET
WITH NO SIGNIFICANT WEATHER AND/OR OBSTRUCTIONS TO VISIBILITY

NCZ015>017-031-032-045>047-102-103-281100-
NORTH COAST

CITY           SKY/WX    TMP DP  RH WIND       PRES   REMARKS
EDENTON        PTCLDY    73  69  86 CALM      29.83S
ELIZABETH CITY CLEAR     68  67  96 E3        29.83R
KITTY HAWK     SUNNY     66  63  91 CALM      29.83R
MANTEO         CLEAR     67  64  91 E3        29.84R

$$

NCZ045>047-081-094-103-104-281100-
CENTRAL COAST

CITY           SKY/WX    TMP DP  RH WIND       PRES   REMARKS
FRISCO         CLEAR     74  70  87 SW3       29.83S FOG

$$

NCZ095-097-098-100-101-281100-
SOUTHERN COAST

CITY           SKY/WX    TMP DP  RH WIND       PRES   REMARKS
BEAUFORT       CLEAR     75  74  96 SW7       29.84S
CEDAR ISLAND   NOT AVBL
JACKSONVILLE   CLEAR     71  69  93 W5        29.83
PINEY ISLAND   SUNNY    N/A N/A N/A SW6       29.83S HAZE
WILMINGTON     CLEAR     72  69  90 SW7       29.85F


$$

NCZ011>013-027>030-043-044-078>080-089-090>093-098-281100-
COASTAL PLAIN

CITY           SKY/WX    TMP DP  RH WIND       PRES   REMARKS
AHOSKIE        NOT AVBL
CLINTON        CLOUDY    71  68  91 CALM      29.81F
ELIZABETHTOWN  CLOUDY    71  66  86 S5        29.81F
GOLDSBORO      PTCLDY    72  72  98 S3        29.80F
GREENVILLE     PTCLDY    70  70 100 CALM      29.85S
HAVELOCK       CLEAR     71  67  87 SW3       29.85S
KENANSVILLE    PTCLDY    70  68  94 CALM      29.83F
KINSTON        PTCLDY    71  68  90 CALM      29.83S
NEW BERN       PTCLDY    69  68  96 CALM      29.84F FOG
RICHLANDS      PTCLDY    69  68  96 SW5       29.84F
ROCKY MOUNT    CLOUDY    67  67 100 CALM      29.82S FOG
WASHINGTON     CLEAR     70  68  94 S3        29.82F
WHITEVILLE     CLOUDY    71  65  83 S5        29.83F

$$

AMZ130-135-150-152-154-156-158-170-250-252-270-ANZ085-086-088-633-658-670-281100-
MARINE OBSERVATIONS

STATION/POSITION TIME  TEMP    WIND        PRES    WAVE   SWELL
                       AIR SEA DIR/SP/G            HT/PER HT/PER
                 (UTC) (F)     (DEG/KT/KT) (MB)    (FT/S) (FT/S)
CHESAPEAKE LIGHT NOT AVBL
64 E VA BEACH    0950   65 64  350/  4/  6 1010.6    3/ 5   3/ 5
DUCK             0948   67 67  110/  5/  6 1009.7
2 E DUCK         1000      67                N/A     1/ 8
OREGON INLET     0942   68 69   60/  4/  5 1009.7
13E OREGON INLT  0948      67                N/A     3/ 6   2/ 6
HATTERAS CG      0942   74 74  220/  6/  8 1009.8
DIAMOND BUOY     0950   75 76  230/ 12/ 14 1010.0    3/ 6   3/ 6
CAPE LOOKOUT     1000   74     230/  8/ 10 1010.3
BEAUFORT LAB     0948   74 73  240/  4/  7 1009.8
30 SE NEW RVR IN 0908   76 76  250/ 14/ 16 1011.1
30 SE NEW RVR IN 0943      76                N/A     4/ 5
27 SE WRIGHTSVLE NOT AVBL
5 SE WRIGHTSVLE  NOT AVBL
225 S CAPE HAT   0950   76 77  230/ 14/ 16 1014.0    3/ 7   2/ 7
41 SE CHARLESTON 0950   76 75  230/ 12/ 14 1012.1    3/ 5   2/ 8

$$




USA.gov is the U.S. government's official web portal to all federal, state and local government web resources and services.